This is the latest recevied weather packets stored in our database for station/object SQ7RAF-15. If no packets are shown the sender has not sent any weather packets the latest 10 day(s).
| Time | Temp. | Humidity | Pressure | Rain* | Wind** | Luminosity | Snow |
|---|---|---|---|---|---|---|---|
| 1777708234 | 20° C | 46% | 1025.3 hPa | 0 mm | - | 505 W/m² | - |
| 1777707930 | 19.44° C | 46% | 1025.3 hPa | 0 mm | - | 476 W/m² | - |
| 1777707626 | 19.44° C | 46% | 1025.3 hPa | 0 mm | - | 480 W/m² | - |
| 1777707338 | 19.44° C | 49% | 1025.4 hPa | 0 mm | - | 461 W/m² | - |
| 1777707018 | 18.33° C | 50% | 1025.4 hPa | 0 mm | - | 417 W/m² | - |
| 1777706730 | 18.33° C | 49% | 1025.2 hPa | 0 mm | - | 419 W/m² | - |
| 1777706442 | 18.33° C | 51% | 1025.4 hPa | 0 mm | - | 435 W/m² | - |
| 1777706122 | 18.33° C | 52% | 1025.3 hPa | 0 mm | - | 445 W/m² | - |
| 1777705835 | 17.78° C | 52% | 1025.2 hPa | 0 mm | - | 433 W/m² | - |
| 1777705546 | 17.78° C | 52% | 1025.2 hPa | 0 mm | - | 410 W/m² | - |
| 1777705226 | 17.22° C | 55% | 1025.3 hPa | 0 mm | - | 391 W/m² | - |
| 1777704938 | 16.67° C | 57% | 1025.3 hPa | 0 mm | - | 368 W/m² | - |
| 1777704618 | 16.67° C | 57% | 1025.3 hPa | 0 mm | - | 342 W/m² | - |
| 1777704329 | 16.67° C | 57% | 1025.4 hPa | 0 mm | - | 315 W/m² | - |
| 1777704043 | 16.11° C | 57% | 1025.3 hPa | 0 mm | - | 306 W/m² | - |
| 1777703740 | 15.56° C | 58% | 1025.4 hPa | 0 mm | - | 308 W/m² | - |
| 1777703435 | 15.56° C | 58% | 1025.3 hPa | 0 mm | - | 286 W/m² | - |
| 1777703146 | 15.56° C | 58% | 1025.3 hPa | 0 mm | - | 266 W/m² | - |
| 1777702827 | 15° C | 59% | 1025.4 hPa | 0 mm | - | 238 W/m² | - |
| 1777702538 | 15° C | 59% | 1025.5 hPa | 0 mm | - | 219 W/m² | - |
| 1777702219 | 14.44° C | 60% | 1025.3 hPa | 0 mm | - | 209 W/m² | - |
| 1777701930 | 14.44° C | 60% | 1025.4 hPa | 0 mm | - | 205 W/m² | - |
| 1777701641 | 13.89° C | 61% | 1025.3 hPa | 0 mm | - | 201 W/m² | - |
| 1777701322 | 14.44° C | 62% | 1025.3 hPa | 0 mm | - | 200 W/m² | - |
| 1777701034 | 14.44° C | 62% | 1025.3 hPa | 0 mm | - | 185 W/m² | - |
* Rain latest hour (hover to see other rain measurements)
** Current wind speed in m/s (hover to see current wind gust speed)